Regional Weather Roundup
Issued by NWS

Home | Current Version | Previous Version | Graphics & Text | Print | Product List | Glossary On
Versions: 1 2 3 4 5 6 7 8 9 10 11 12 13 14 15 16 17 18 19 20 21 22 23 24 25 26 27
000
ASUS45 KBOI 261310
RWRID

IDAHO REGIONAL WEATHER ROUNDUP
NATIONAL WEATHER SERVICE BOISE ID
700 AM MDT TUE JUL 26 2016

NOTE: "FAIR" INDICATES FEW OR NO CLOUDS BELOW 12000 FEET
WITH NO SIGNIFICANT WEATHER AND/OR OBSTRUCTIONS TO VISIBILITY

IDZ012-014-261400-
SOUTHWEST IDAHO


CITY           SKY/WX    TMP DP  RH WIND       PRES   REMARKS
BOISE          CLEAR     68  35  29 S8        29.98R
CALDWELL       NOT AVBL
MOUNTAIN HOME  CLEAR     61  30  30 CALM      29.99R
$$

IDZ016-017-261400-
SOUTHCENTRAL IDAHO


CITY           SKY/WX    TMP DP  RH WIND       PRES   REMARKS
BURLEY         CLEAR     50  45  83 CALM      30.06R
JEROME         CLEAR     68  33  27 NE10      30.06R
TWIN FALLS     CLEAR     63  27  25 SW9       30.07R
$$

IDZ019>023-261400-
SOUTHEAST IDAHO


CITY           SKY/WX    TMP DP  RH WIND       PRES   REMARKS
IDAHO FALLS    CLOUDY    49  42  77 VRB3      30.14R
POCATELLO      CLOUDY    51  33  50 CALM      30.11R
REXBURG        CLOUDY    52  42  69 E6        30.16R
$$

IDZ006-010-011-018-031-032-261400-
CENTRAL IDAHO MOUNTAINS


CITY           SKY/WX    TMP DP  RH WIND       PRES   REMARKS
MCCALL         PTCLDY    55  46  71 CALM      30.15S
HAILEY         PTCLDY    57  32  38 NW12      30.19S
STANLEY        NOT AVBL
SALMON         CLEAR     52  41  66 CALM      30.14R
CHALLIS        CLEAR     55  34  45 CALM      30.20R
$$

IDZ002-004-006-007-026-261400-
NORTHERN IDAHO


CITY           SKY/WX    TMP DP  RH WIND       PRES   REMARKS
LEWISTON       PTCLDY    66  50  56 CALM      29.98R
LOWELL           N/A     58  53  84 CALM      30.07R
COEUR D`ALENE  PTCLDY    63  54  72 SE5       30.00R
MULLAN PASS    CLEAR     64  41  42 W5        30.22R
$$




USA.gov is the U.S. government's official web portal to all federal, state and local government web resources and services.